FW1273 Weather Reports


time (UTC)temp
C
wind
direction
speed
KPH
gust
KPH
rain 1hr
cm
rain 24hr
cm
rain mn
cm
humidity
%
barometer
mb
20260509085219 12 212 6.4 22.5 0.00 0.00 0.00 87 1003.9
20260509084215 12 159 8.0 20.9 0.00 0.00 0.00 87 1003.9
20260509083718 12 162 8.0 19.3 0.00 0.00 0.00 87 1004.0
20260509083217 12 174 9.7 19.3 0.00 0.00 0.00 86 1004.0
20260509082716 12 178 8.0 19.3 0.00 0.00 0.00 86 1004.1
20260509082215 12 199 8.0 19.3 0.00 0.00 0.00 86 1004.1
20260509081715 12 178 9.7 20.9 0.00 0.00 0.00 86 1004.2
20260509081216 12 202 8.0 22.5 0.00 0.00 0.00 86 1004.2
20260509080715 12 249 8.0 22.5 0.00 0.00 0.00 86 1004.2
20260509080214 12 192 6.4 17.7 0.00 0.00 0.00 86 1004.3
20260509075212 12 173 8.0 19.3 0.00 0.00 0.00 86 1004.3
20260509074709 12 217 8.0 24.1 0.00 0.00 0.00 85 1004.4
20260509074211 12 185 8.0 24.1 0.00 0.00 0.00 85 1004.6
20260509073711 12 181 6.4 20.9 0.00 0.00 0.00 85 1004.5
20260509073210 12 182 8.0 24.1 0.00 0.00 0.00 85 1004.6
20260509072708 12 217 9.7 24.1 0.00 0.00 0.00 85 1004.7
20260509071709 12 142 9.7 25.7 0.00 0.00 0.00 84 1004.8
20260509071210 12 188 9.7 19.3 0.00 0.00 0.00 84 1005.0
20260509065654 12 188 11.3 32.2 0.00 0.00 0.00 84 1005.5
20260509065150 12 218 12.9 35.4 0.00 0.00 0.00 84 1005.6
20260509064643 12 200 8.0 35.4 0.00 0.00 0.00 85 1005.5
20260509064137 12 188 8.0 29.0 0.00 0.00 0.00 83 1005.7
20260509063632 12 217 8.0 29.0 0.00 0.00 0.00 83 1005.6
20260509063125 11 193 6.4 17.7 0.00 0.00 0.00 81 1005.6
20260509062618 11 223 8.0 17.7 0.00 0.00 0.00 81 1005.6
20260509061617 11 187 8.0 17.7 0.00 0.00 0.00 79 1005.7
20260509060617 11 183 6.4 19.3 0.00 0.00 0.00 77 1005.8
20260509060113 11 179 4.8 16.1 0.00 0.00 0.00 74 1005.9
20260509055614 11 156 4.8 16.1 0.00 0.00 0.00 73 1005.9
20260509054615 11 163 6.4 19.3 0.00 0.00 0.00 69 1005.9
20260509053614 11 169 8.0 19.3 0.00 0.00 0.00 65 1005.9
20260509053114 11 159 9.7 20.9 0.00 0.00 0.00 64 1006.0
20260509052613 11 166 8.0 20.9 0.00 0.00 0.00 62 1006.1
20260509052113 11 181 8.0 19.3 0.00 0.00 0.00 61 1006.1
20260509051613 11 166 6.4 14.5 0.00 0.00 0.00 59 1006.1
20260509051115 11 156 6.4 14.5 0.00 0.00 0.00 59 1006.1
20260509050609 11 194 6.4 17.7 0.00 0.00 0.00 59 1006.0
20260509050104 11 170 6.4 16.1 0.00 0.00 0.00 59 1006.1
20260509045557 11 166 4.8 16.1 0.00 0.00 0.00 59 1006.0
20260509045050 11 153 6.4 16.1 0.00 0.00 0.00 59 1006.0
20260509044546 11 182 4.8 16.1 0.00 0.00 0.00 59 1006.0
20260509044040 11 164 4.8 16.1 0.00 0.00 0.00 59 1006.0
20260509043533 11 139 4.8 14.5 0.00 0.00 0.00 59 1006.1
20260509043028 11 160 4.8 14.5 0.00 0.00 0.00 59 1006.1
20260509042015 11 175 4.8 16.1 0.00 0.00 0.00 59 1006.2
20260509041509 11 186 4.8 17.7 0.00 0.00 0.00 60 1006.2
20260509041005 11 183 4.8 17.7 0.00 0.00 0.00 60 1006.3
20260509040504 11 140 3.2 9.7 0.00 0.00 0.00 60 1006.3
20260509040017 11 147 3.2 9.7 0.00 0.00 0.00 60 1006.3
20260509035504 11 165 3.2 9.7 0.00 0.00 0.00 60 1006.4
20260509035002 11 183 3.2 9.7 0.00 0.00 0.00 60 1006.4
20260509034505 11 164 1.6 9.7 0.00 0.00 0.00 61 1006.5
20260509033501 10 172 1.6 8.0 0.00 0.00 0.00 60 1006.6
20260509033001 10 169 1.6 8.0 0.00 0.00 0.00 59 1006.6
20260509032500 10 169 0.0 8.0 0.00 0.00 0.00 58 1006.6
20260509031956 10 167 0.0 4.8 0.00 0.00 0.00 57 1006.6
20260509031502 10 167 0.0 4.8 0.00 0.00 0.00 56 1006.7
20260509030956 10 167 0.0 8.0 0.00 0.00 0.00 55 1006.8
20260509030457 10 167 0.0 8.0 0.00 0.00 0.00 55 1006.7
20260509025959 10 156 0.0 4.8 0.00 0.00 0.00 54 1006.8
20260509025456 10 150 0.0 3.2 0.00 0.00 0.00 52 1006.9
20260509024957 10 163 0.0 3.2 0.00 0.00 0.00 52 1007.0
20260509024456 10 165 0.0 6.4 0.00 0.00 0.00 51 1007.1
20260509023957 10 165 0.0 6.4 0.00 0.00 0.00 51 1007.1
20260509023454 10 164 0.0 8.0 0.00 0.00 0.00 50 1007.2
20260509022957 10 164 0.0 8.0 0.00 0.00 0.00 50 1007.2
20260509022452 10 155 0.0 3.2 0.00 0.00 0.00 49 1007.2
20260509021453 10 155 0.0 4.8 0.00 0.00 0.00 47 1007.2
20260509020452 10 151 0.0 3.2 0.00 0.00 0.00 46 1007.2
20260509015952 10 150 0.0 3.2 0.00 0.00 0.00 46 1007.2
20260509014951 10 150 0.0 1.6 0.00 0.00 0.00 46 1007.1
20260509014453 10 148 0.0 3.2 0.00 0.00 0.00 45 1007.2
20260509013948 11 148 0.0 3.2 0.00 0.00 0.00 46 1007.1
20260509012949 11 156 0.0 1.6 0.00 0.00 0.00 44 1007.2
20260509012449 11 156 0.0 0.0 0.00 0.00 0.00 44 1007.1
20260509011949 11 156 0.0 1.6 0.00 0.00 0.00 44 1007.1
20260509011450 11 156 0.0 1.6 0.00 0.00 0.00 43 1007.0
20260509010947 11 156 0.0 1.6 0.00 0.00 0.00 41 1007.1
20260509004949 13 155 0.0 1.6 0.00 0.00 0.00 41 1007.1
20260509004448 13 155 0.0 1.6 0.00 0.00 0.00 40 1007.1
20260509003445 14 155 0.0 1.6 0.00 0.00 0.00 38 1007.1
20260509002942 15 155 0.0 0.0 0.00 0.00 0.00 35 1007.3
20260509002442 15 155 0.0 1.6 0.00 0.00 0.00 35 1007.2
20260509001937 15 155 0.0 1.6 0.00 0.00 0.00 35 1007.2
20260509001439 16 155 0.0 1.6 0.00 0.00 0.00 32 1007.2
20260509000935 16 155 1.6 6.4 0.00 0.00 0.00 32 1007.2
20260509000434 16 155 1.6 6.4 0.00 0.00 0.00 32 1007.2
20260508235937 16 184 1.6 6.4 0.00 0.00 0.00 30 1007.3
20260508235433 16 184 1.6 8.0 0.00 0.00 0.00 29 1007.4
20260508234933 16 169 1.6 8.0 0.00 0.00 0.00 28 1007.5
20260508234429 16 220 1.6 3.2 0.00 0.00 0.00 28 1007.5
20260508233922 16 220 1.6 4.8 0.00 0.00 0.00 27 1007.6
20260508232911 16 220 1.6 4.8 0.00 0.00 0.00 27 1007.6
20260508231859 16 246 1.6 8.0 0.00 0.00 0.00 27 1007.8
20260508230847 16 254 3.2 9.7 0.00 0.00 0.00 27 1007.9
20260508230340 16 193 3.2 9.7 0.00 0.00 0.00 26 1007.9
20260508225835 16 191 3.2 9.7 0.00 0.00 0.00 28 1008.0
20260508225327 16 245 3.2 12.9 0.00 0.00 0.00 26 1008.1
20260508224819 16 210 3.2 12.9 0.00 0.00 0.00 28 1008.1
20260508223818 16 221 1.6 6.4 0.00 0.00 0.00 27 1008.0
20260508223320 16 241 3.2 8.0 0.00 0.00 0.00 31 1008.1
20260508222817 16 244 3.2 11.3 0.00 0.00 0.00 28 1008.1
20260508222316 16 251 3.2 12.9 0.00 0.00 0.00 29 1008.1
20260508221816 16 253 3.2 12.9 0.00 0.00 0.00 27 1008.2
20260508221314 16 242 4.8 12.9 0.00 0.00 0.00 28 1008.3
20260508215811 16 301 4.8 14.5 0.00 0.00 0.00 29 1008.5
20260508215312 16 286 3.2 11.3 0.00 0.00 0.00 28 1008.5
20260508214811 16 261 1.6 8.0 0.00 0.00 0.00 33 1008.4
20260508213810 16 215 4.8 12.9 0.00 0.00 0.00 29 1008.5
20260508212811 15 303 3.2 12.9 0.00 0.00 0.00 32 1008.6
20260508212310 16 267 3.2 12.9 0.00 0.00 0.00 32 1008.6
20260508211804 15 233 4.8 11.3 0.00 0.00 0.00 30 1008.7
20260508211257 15 229 4.8 12.9 0.00 0.00 0.00 35 1008.8
20260508210753 15 325 4.8 12.9 0.00 0.00 0.00 33 1008.8
20260508210248 15 290 6.4 14.5 0.00 0.00 0.00 30 1008.8
20260508205740 15 290 6.4 16.1 0.00 0.00 0.00 34 1008.8
20260508205235 15 325 4.8 16.1 0.00 0.00 0.00 32 1008.9
20260508204728 15 280 4.8 16.1 0.00 0.00 0.00 31 1009.0
20260508204222 15 270 6.4 16.1 0.00 0.00 0.00 32 1009.0
20260508203715 15 228 6.4 14.5 0.00 0.00 0.00 34 1009.0
20260508203209 15 238 8.0 16.1 0.00 0.00 0.00 35 1009.1
20260508202704 15 279 8.0 16.1 0.00 0.00 0.00 33 1009.1
20260508202157 15 282 8.0 17.7 0.00 0.00 0.00 37 1009.3
20260508201652 15 269 8.0 17.7 0.00 0.00 0.00 33 1009.3
20260508201147 15 276 6.4 16.1 0.00 0.00 0.00 34 1009.4
20260508200640 15 235 6.4 16.1 0.00 0.00 0.00 33 1009.4
20260508200135 15 311 6.4 16.1 0.00 0.00 0.00 35 1009.5
20260508195628 15 248 4.8 16.1 0.00 0.00 0.00 35 1009.6
20260508195123 15 227 6.4 17.7 0.00 0.00 0.00 36 1009.6
20260508194615 14 306 6.4 17.7 0.00 0.00 0.00 36 1009.7
20260508194111 14 286 8.0 22.5 0.00 0.00 0.00 38 1009.7
20260508193604 14 304 8.0 22.5 0.00 0.00 0.00 36 1009.8
20260508193100 14 296 6.4 17.7 0.00 0.00 0.00 35 1009.8
20260508192553 14 246 6.4 17.7 0.00 0.00 0.00 39 1009.8
20260508192048 14 246 8.0 17.7 0.00 0.00 0.00 40 1009.8
20260508191540 13 271 9.7 17.7 0.00 0.00 0.00 42 1009.9
20260508190022 14 292 8.0 19.3 0.00 0.00 0.00 45 1010.1
20260508185516 14 268 8.0 17.7 0.00 0.00 0.00 47 1010.2
20260508185011 13 299 9.7 17.7 0.00 0.00 0.00 47 1010.2
20260508184504 13 279 8.0 17.7 0.00 0.00 0.00 44 1010.3
20260508183958 14 277 8.0 17.7 0.00 0.00 0.00 50 1010.3
20260508183452 14 233 6.4 16.1 0.00 0.00 0.00 44 1010.3
20260508182947 14 312 6.4 16.1 0.00 0.00 0.00 45 1010.3
20260508182440 14 269 8.0 16.1 0.00 0.00 0.00 44 1010.3
20260508181936 14 295 6.4 19.3 0.00 0.00 0.00 40 1010.4
20260508181429 14 297 8.0 19.3 0.00 0.00 0.00 38 1010.4
20260508180922 13 260 9.7 17.7 0.00 0.00 0.00 37 1010.5
20260508175912 14 311 4.8 16.1 0.00 0.00 0.00 35 1010.6
20260508175405 14 249 4.8 12.9 0.00 0.00 0.00 44 1010.7
20260508174352 13 187 6.4 17.7 0.00 0.00 0.00 37 1010.8
20260508173847 14 294 6.4 17.7 0.00 0.00 0.00 36 1010.9
20260508173341 14 259 6.4 17.7 0.00 0.00 0.00 34 1011.0
20260508172835 14 276 4.8 16.1 0.00 0.00 0.00 36 1011.0
20260508172331 14 268 6.4 16.1 0.00 0.00 0.00 37 1011.1
20260508171832 14 271 6.4 12.9 0.00 0.00 0.00 35 1011.1
20260508171330 14 258 4.8 14.5 0.00 0.00 0.00 34 1011.1
20260508170833 14 240 6.4 14.5 0.00 0.00 0.00 38 1011.2
20260508165830 13 278 6.4 24.1 0.00 0.00 0.00 38 1011.2
20260508165331 13 274 8.0 19.3 0.00 0.00 0.00 37 1011.2
20260508164830 13 301 8.0 19.3 0.00 0.00 0.00 36 1011.3
20260508164330 13 293 8.0 17.7 0.00 0.00 0.00 37 1011.4
20260508163832 13 250 8.0 17.7 0.00 0.00 0.00 38 1011.6
20260508162831 14 240 6.4 17.7 0.00 0.00 0.00 35 1011.6
20260508161831 14 273 6.4 16.1 0.00 0.00 0.00 36 1011.7
20260508160831 14 262 6.4 16.1 0.00 0.00 0.00 35 1011.7
20260508160333 14 288 6.4 16.1 0.00 0.00 0.00 38 1011.6
20260508155831 14 267 4.8 14.5 0.00 0.00 0.00 35 1011.7
20260508155332 14 178 4.8 12.9 0.00 0.00 0.00 37 1011.7
20260508154329 13 202 6.4 14.5 0.00 0.00 0.00 36 1011.6
20260508153830 13 290 6.4 14.5 0.00 0.00 0.00 35 1011.6
20260508153330 13 229 6.4 16.1 0.00 0.00 0.00 36 1011.5
20260508152831 13 261 6.4 19.3 0.00 0.00 0.00 35 1011.6
20260508151330 13 281 4.8 19.3 0.00 0.00 0.00 45 1011.5
20260508150829 13 243 4.8 12.9 0.00 0.00 0.00 45 1011.7
20260508150328 13 275 6.4 14.5 0.00 0.00 0.00 40 1011.8
20260508145828 13 191 6.4 16.1 0.00 0.00 0.00 42 1011.8
20260508145328 13 219 6.4 19.3 0.00 0.00 0.00 43 1011.9
20260508144822 13 212 4.8 19.3 0.00 0.00 0.00 44 1012.0
20260508143818 13 193 4.8 12.9 0.00 0.00 0.00 51 1012.0
20260508143318 13 302 4.8 8.0 0.00 0.00 0.00 57 1011.9
20260508142317 13 243 1.6 11.3 0.00 0.00 0.00 58 1012.0
20260508141817 13 201 3.2 9.7 0.00 0.00 0.00 60 1011.9
20260508141316 12 202 3.2 9.7 0.00 0.00 0.00 61 1012.0
20260508135313 12 171 4.8 11.3 0.00 0.00 0.00 68 1012.2
20260508134314 11 143 4.8 12.9 0.00 0.00 0.00 68 1012.1
20260508133814 11 178 4.8 9.7 0.00 0.00 0.00 71 1012.2
20260508133308 11 188 4.8 9.7 0.00 0.00 0.00 70 1012.2
20260508132805 11 175 4.8 9.7 0.00 0.00 0.00 71 1012.2
20260508132306 11 189 4.8 9.7 0.00 0.00 0.00 74 1012.1
20260508131806 10 178 4.8 9.7 0.00 0.00 0.00 74 1012.3
20260508131304 10 184 6.4 12.9 0.00 0.00 0.00 75 1012.3
20260508130807 10 171 4.8 12.9 0.00 0.00 0.00 74 1012.4
20260508125804 10 175 3.2 8.0 0.00 0.00 0.00 76 1012.5
20260508125306 10 180 3.2 6.4 0.00 0.00 0.00 76 1012.4
20260508124804 10 169 1.6 6.4 0.00 0.00 0.00 77 1012.4
20260508124307 10 169 1.6 6.4 0.00 0.00 0.00 77 1012.4
20260508123802 9 169 1.6 6.4 0.00 0.00 0.00 77 1012.4
20260508123301 8 169 0.0 3.2 0.00 0.00 0.00 79 1012.4
20260508122301 7 169 3.2 6.4 0.00 0.00 0.00 80 1012.4
20260508121800 7 169 3.2 8.0 0.00 0.00 0.00 81 1012.4
20260508121304 6 169 3.2 8.0 0.00 0.00 0.00 81 1012.3
20260508120800 6 183 3.2 8.0 0.00 0.00 0.00 82 1012.2
20260508120259 6 223 1.6 4.8 0.00 0.00 0.00 83 1012.1
20260508115801 5 245 0.0 4.8 0.00 0.00 0.00 85 1012.0
20260508115257 5 285 0.0 0.0 0.00 0.00 0.00 86 1011.9
20260508114257 3 285 0.0 0.0 0.00 0.00 0.00 88 1011.9
20260508113758 3 285 0.0 0.0 0.00 0.00 0.00 89 1011.8
20260508113256 3 285 0.0 0.0 0.00 0.00 0.00 90 1011.8
20260508112759 2 285 0.0 0.0 0.00 0.00 0.00 90 1011.8
20260508112257 2 285 0.0 0.0 0.00 0.00 0.00 90 1011.8
20260508111757 2 285 0.0 0.0 0.00 0.00 0.00 90 1011.7
20260508111258 1 285 0.0 0.0 0.00 0.00 0.00 89 1011.7
20260508110757 1 285 0.0 0.0 0.00 0.00 0.00 89 1011.7
20260508110258 1 285 0.0 0.0 0.00 0.00 0.00 89 1011.8
20260508104756 1 285 0.0 0.0 0.00 0.00 0.00 88 1011.7
20260508104258 1 285 0.0 0.0 0.00 0.00 0.00 88 1011.8
20260508103756 1 285 0.0 0.0 0.00 0.00 0.00 87 1011.8
20260508102756 1 285 0.0 0.0 0.00 0.00 0.00 87 1011.5
20260508102257 1 285 0.0 0.0 0.00 0.00 0.00 87 1011.4
20260508101756 1 285 0.0 0.0 0.00 0.00 0.00 86 1011.5
20260508101257 1 285 0.0 0.0 0.00 0.00 0.00 86 1011.4
20260508100756 2 285 0.0 0.0 0.00 0.00 0.00 86 1011.5
20260508100257 2 285 0.0 0.0 0.00 0.00 0.00 86 1011.5
20260508095257 2 285 0.0 0.0 0.00 0.00 0.00 84 1011.4
20260508094256 2 285 0.0 0.0 0.00 0.00 0.00 83 1011.5
20260508093756 2 285 0.0 0.0 0.00 0.00 0.00 83 1011.6
20260508092752 2 285 0.0 0.0 0.00 0.00 0.00 83 1011.6
20260508092246 2 285 0.0 0.0 0.00 0.00 0.00 83 1011.6
20260508091243 2 285 0.0 0.0 0.00 0.00 0.00 84 1011.6
20260508090745 2 285 0.0 0.0 0.00 0.00 0.00 84 1011.7